User: anonymous
Location: Unspecified
(0.0000°N, 0.0000°E)
Time: 01:32:51
(UTC+02:00)
Language:

Coronas F rocket - Orbit

View from above orbital plane
View from above orbital plane
View from above satellite
View from above satellite

Ground track
Ground track

The orbit data is extracted from the following two-line orbital elements,

1 26874U 01032B   14243.46067148  .00010201  00000-0  15862-3 0  7721
2 26874 082.4705 264.3623 0016564 134.3689 225.8924 15.53584040732983
Epoch (UTC): 31 August 2014 11:03:22
Eccentricity: 0.0016564
inclination: 82.4705°
perigee height: 395 km
apogee height: 417 km
right ascension of ascending node: 264.3623°
argument of perigee: 134.3689°
revolutions per day: 15.53584040
mean anomaly at epoch: 225.8924°
orbit number at epoch: 73298

The dashed part of the orbit path shows where the satellite is in the earth's shadow,  

DLR